Wind_Speed
10 8 8 8 9 9 9 11 14 16 12 11 13 13 13 17 14 13 10 14 15 16 17 20 21 26 27 28 33 31 27 25
8 11 12 12 13 14 15 17 19 19 14 19 18 17 16 18 17 15 17 15 17 18 17 18 22 25 26 27 31 30 32 31
14 15 12 13 16 16 17 18 19 20 13 17 19 13 18 18 19 20 23 20 20 19 19 19 19 22 27 27 28 31 32 33
15 16 14 18 18 21 23 22 26 25 25 23 20 20 19 19 21 16 17 21 18 19 21 20 22 25 25 29 30 31 33 37
21 20 22 24 27 27 30 30 32 30 35 30 32 26 26 25 24 22 22 22 26 23 25 23 25 25 28 28 31 34 33 35
25 29 28 31 34 37 39 38 38 40 44 41 35 35 33 32 33 28 25 25 28 33 30 29 34 30 27 30 32 33 36 39
30 35 41 40 44 45 47 48 48 49 56 51 40 41 39 36 41 37 31 27 32 31 42 44 37 39 31 25 30 36 36 39
39 43 46 51 55 56 57 58 57 56 63 61 53 49 46 47 43 45 32 29 16 26 23 60 42 45 38 28 34 35 39 41
47 52 54 58 59 61 66 67 65 64 66 64 59 58 58 57 58 44 40 28 17 11 20 81 73 65 39 44 39 40 37 39
50 53 57 59 65 67 72 73 76 74 72 71 67 65 67 66 69 57 43 42 37 29 24 43 59 62 58 50 49 46 42 44
53 56 60 64 67 70 73 73 75 77 78 75 75 74 76 71 75 72 58 51 31 32 47 33 45 44 61 65 61 48 47 50
55 59 61 65 70 71 74 74 74 73 78 81 76 79 79 77 80 73 72 65 67 57 49 67 61 40 61 43 48 51 51 53
60 63 62 67 68 62 60 59 58 59 64 68 71 74 80 80 83 80 77 75 68 76 74 64 59 65 61 63 57 62 59 56
63 63 65 66 55 51 48 45 45 46 49 54 59 61 69 76 78 86 87 82 75 75 78 76 68 67 69 66 62 65 61 62
65 62 64 55 46 40 39 36 35 31 33 40 48 56 60 63 74 85 85 85 79 76 74 71 86 81 68 71 62 59 62 62
64 65 64 49 38 35 34 34 34 27 25 27 36 44 49 57 63 69 80 87 84 86 82 80 90 93 86 80 70 64 59 52
63 63 62 44 34 29 32 30 25 26 24 21 22 31 39 45 50 59 69 76 87 88 97 97 97 93 89 85 81 69 62 61
65 63 54 39 23 28 33 33 29 25 22 18 16 17 23 32 42 51 58 66 76 88 95 105 105 105 102 95 97 93 90 80
63 61 53 30 18 28 31 29 31 22 17 21 17 14 14 19 28 36 45 53 58 68 80 96 107 113 119 119 116 111 107 103
Wind_Direction
233 241 247 254 256 256 256 243 247 250 258 256 253 231 244 252 247 246 232 261 276 286 284 274 261 253 256 253 253 253 241 237
248 260 262 263 265 265 263 261 264 261 253 253 248 248 258 265 285 285 281 266 262 259 259 268 266 260 255 256 254 254 242 241
269 262 267 277 277 276 272 272 270 273 269 266 276 274 260 271 266 264 270 272 274 268 255 247 251 256 257 254 253 253 249 243
267 275 280 277 278 275 275 272 275 279 273 269 264 257 258 254 257 265 261 273 276 271 268 257 250 246 248 255 252 253 252 248
280 283 281 280 281 276 278 277 276 276 275 267 271 275 273 277 273 271 266 251 273 280 272 266 257 241 237 237 250 252 251 253
290 289 283 283 281 281 278 277 276 277 273 273 275 271 272 282 285 281 282 298 287 277 264 262 271 263 242 237 235 243 254 253
294 291 291 288 283 282 279 277 274 272 272 276 277 279 280 275 273 277 279 274 288 258 261 277 257 255 249 247 248 242 238 252
288 286 286 285 284 284 281 277 275 274 274 275 273 269 263 263 264 268 265 268 274 154 9 217 265 256 246 249 266 253 248 238
290 290 289 287 286 284 279 278 274 269 269 268 269 266 264 260 256 251 252 248 136 119 345 261 274 271 251 275 264 255 254 253
292 291 289 288 284 281 278 277 276 273 268 264 258 254 256 258 259 251 248 227 200 159 133 257 282 266 258 281 272 258 253 255
295 294 295 295 292 287 284 278 272 269 265 260 256 254 253 251 253 253 235 224 207 217 188 171 235 256 271 264 267 249 250 252
301 303 303 298 295 292 287 281 275 268 261 259 252 249 249 249 249 249 250 232 235 226 205 206 230 215 263 263 257 252 247 245
308 309 307 305 305 298 291 286 279 271 265 259 253 245 244 245 246 245 244 243 237 235 233 234 232 248 247 248 251 249 256 245
313 316 316 316 311 305 300 294 285 278 268 261 253 248 242 242 241 242 241 238 237 235 237 237 234 236 230 231 240 245 251 242
320 324 324 322 321 319 319 315 306 291 273 259 255 250 243 238 237 239 240 237 234 231 231 228 232 234 228 237 243 238 240 237
327 328 330 325 321 318 320 318 320 311 298 269 261 256 250 243 236 234 236 238 236 227 225 223 228 235 239 241 239 234 234 236
329 331 331 324 317 326 334 333 330 327 328 307 280 262 253 250 242 234 238 239 235 232 226 227 229 234 233 237 236 234 234 242
329 332 332 320 332 343 348 344 343 342 342 343 324 287 267 251 241 238 235 236 239 237 231 230 232 234 237 239 243 245 246 245
330 331 333 315 340 344 339 327 337 345 7 360 359 344 309 271 252 245 238 237 238 241 241 237 238 240 241 244 246 250 252 251
Height
10907 10909 10910 10911 10912 10913 10914 10916 10916 10916 10919 10920 10921 10922 10925 10927 10930 10935 10938 10940 10942 10943 10944 10946 10948 10949 10949 10951 10952 10954 10957 10959
10906 10907 10907 10908 10909 10909 10911 10911 10911 10912 10917 10913 10914 10919 10921 10923 10928 10931 10932 10936 10936 10937 10939 10940 10940 10942 10944 10946 10947 10949 10952 10954
10903 10902 10904 10906 10905 10905 10905 10905 10906 10906 10911 10912 10911 10916 10916 10918 10919 10917 10920 10923 10925 10927 10929 10931 10932 10934 10937 10940 10942 10944 10946 10947
10899 10898 10902 10900 10900 10899 10899 10900 10898 10901 10902 10903 10905 10906 10907 10909 10909 10910 10911 10913 10915 10918 10918 10920 10922 10923 10926 10931 10935 10938 10940 10942
10893 10895 10895 10895 10893 10892 10891 10893 10891 10893 10890 10893 10894 10899 10900 10899 10898 10901 10905 10907 10910 10914 10915 10914 10912 10913 10913 10913 10920 10928 10933 10935
10889 10887 10888 10887 10885 10883 10883 10886 10886 10881 10876 10881 10890 10892 10892 10892 10893 10897 10900 10907 10907 10900 10902 10905 10913 10911 10907 10907 10906 10908 10919 10925
10880 10877 10873 10876 10873 10874 10871 10871 10872 10870 10858 10869 10881 10877 10878 10879 10879 10886 10890 10890 10887 10879 10891 10887 10893 10903 10897 10898 10904 10903 10900 10911
10871 10867 10866 10860 10857 10860 10857 10855 10859 10861 10847 10849 10860 10863 10866 10864 10867 10870 10873 10880 10877 10874 10887 10874 10881 10889 10895 10885 10893 10893 10895 10891
10858 10853 10851 10844 10844 10839 10830 10831 10837 10837 10832 10832 10840 10839 10843 10843 10848 10858 10862 10869 10879 10869 10890 10869 10884 10884 10881 10882 10880 10884 10882 10885
10845 10840 10833 10834 10823 10819 10809 10809 10805 10808 10812 10812 10813 10815 10814 10820 10818 10836 10846 10848 10848 10842 10864 10887 10876 10870 10874 10872 10873 10870 10872 10875
10830 10823 10816 10809 10797 10791 10783 10781 10775 10772 10772 10783 10787 10789 10785 10790 10794 10804 10824 10829 10829 10840 10856 10869 10852 10859 10854 10856 10854 10854 10856 10863
10812 10806 10799 10783 10770 10764 10752 10744 10740 10741 10739 10739 10752 10753 10759 10767 10767 10784 10787 10806 10807 10813 10830 10836 10831 10859 10839 10837 10839 10840 10843 10852
10793 10785 10775 10760 10747 10731 10721 10715 10710 10709 10707 10707 10712 10723 10727 10737 10744 10751 10766 10775 10783 10789 10796 10802 10804 10809 10813 10820 10823 10828 10832 10838
10777 10767 10752 10737 10726 10712 10702 10693 10687 10684 10681 10682 10687 10694 10703 10715 10724 10725 10731 10746 10761 10769 10777 10786 10786 10786 10788 10793 10801 10809 10816 10822
10758 10751 10735 10721 10710 10700 10690 10682 10675 10670 10667 10665 10665 10669 10676 10685 10696 10704 10711 10724 10739 10748 10753 10758 10765 10774 10776 10776 10784 10789 10796 10798
10745 10731 10720 10708 10698 10691 10684 10676 10669 10662 10658 10656 10653 10653 10656 10662 10673 10681 10691 10704 10716 10727 10730 10735 10740 10748 10756 10760 10767 10775 10776 10779
10736 10723 10706 10699 10693 10685 10677 10670 10663 10658 10652 10648 10646 10644 10645 10647 10656 10666 10669 10675 10688 10701 10709 10711 10717 10723 10726 10735 10743 10750 10756 10759
10723 10712 10701 10690 10685 10679 10673 10667 10661 10654 10649 10645 10640 10638 10637 10638 10641 10648 10658 10661 10664 10671 10682 10688 10691 10700 10703 10708 10716 10725 10732 10738
10715 10702 10693 10686 10682 10677 10670 10665 10660 10654 10648 10643 10640 10636 10633 10631 10633 10635 10639 10645 10650 10652 10657 10668 10672 10675 10678 10682 10689 10698 10707 10713